Tiempo cada hora Cayambe

Hoy, 19 Enero, Martes

Tiempo Temperatura Precipitaciones Viento Presión Humedad
00:00 +10°C° 0 mm 1 mps 528 mmHg 91%
01:00 +8°C° 0 mm 2 mps 528 mmHg 90%
02:00 +9°C° 0 mm 1 mps 528 mmHg 89%
03:00 +9°C° 0 mm 1 mps 527 mmHg 89%
04:00 +9°C° 0 mm 1 mps 527 mmHg 88%
05:00 +10°C° 0 mm 1 mps 527 mmHg 88%
06:00 +10°C° 0 mm 1 mps 528 mmHg 87%
07:00 +10°C° 0 mm 1 mps 528 mmHg 87%
08:00 +11°C° 0 mm 1 mps 529 mmHg 83%
09:00 +12°C° 0 mm 1 mps 530 mmHg 80%
10:00 +13°C° 0 mm 1 mps 530 mmHg 77%
11:00 +14°C° 0.1 mm 2 mps 531 mmHg 70%
12:00 +16°C° 0.1 mm 2 mps 532 mmHg 64%
13:00 +18°C° 0.1 mm 2 mps 532 mmHg 58%
14:00 +17°C° 0.6 mm 2 mps 531 mmHg 65%
15:00 +16°C° 0.6 mm 2 mps 530 mmHg 72%
16:00 +15°C° 0.6 mm 2 mps 529 mmHg 79%
17:00 +13°C° 0.4 mm 2 mps 529 mmHg 84%
18:00 +12°C° 0.4 mm 1 mps 528 mmHg 88%
19:00 +11°C° 0.4 mm 1 mps 528 mmHg 93%
20:00 +10°C° 0 mm 1 mps 528 mmHg 92%
21:00 +9°C° 0 mm 2 mps 528 mmHg 90%
22:00 +9°C° 0 mm 2 mps 529 mmHg 89%
23:00 +9°C° 0 mm 2 mps 529 mmHg 89%

Mañana, 20 Enero, Miércoles

Tiempo Temperatura Precipitaciones Viento Presión Humedad
00:00 +9°C° 0 mm 2 mps 529 mmHg 89%
01:00 +9°C° 0 mm 2 mps 529 mmHg 89%
02:00 +9°C° 0 mm 2 mps 528 mmHg 89%
03:00 +8°C° 0 mm 2 mps 527 mmHg 90%
04:00 +8°C° 0 mm 1 mps 527 mmHg 90%
05:00 +8°C° 0 mm 2 mps 527 mmHg 89%
06:00 +8°C° 0 mm 2 mps 528 mmHg 88%
07:00 +9°C° 0 mm 2 mps 528 mmHg 87%
08:00 +10°C° 0 mm 2 mps 529 mmHg 82%
09:00 +13°C° 0 mm 2 mps 530 mmHg 77%
10:00 +14°C° 0 mm 2 mps 531 mmHg 72%
11:00 +15°C° 0.1 mm 2 mps 532 mmHg 68%
12:00 +16°C° 0.1 mm 2 mps 532 mmHg 64%
13:00 +17°C° 0.1 mm 2 mps 532 mmHg 60%
14:00 +16°C° 0.6 mm 2 mps 531 mmHg 68%
15:00 +15°C° 0.6 mm 2 mps 530 mmHg 76%
16:00 +14°C° 0.6 mm 2 mps 529 mmHg 83%
17:00 +13°C° 0.4 mm 2 mps 529 mmHg 87%
18:00 +12°C° 0.4 mm 1 mps 528 mmHg 91%
19:00 +11°C° 0.4 mm 1 mps 528 mmHg 95%
20:00 +11°C° 0.1 mm 1 mps 528 mmHg 94%
21:00 +10°C° 0.1 mm 1 mps 528 mmHg 93%
22:00 +10°C° 0.1 mm 1 mps 528 mmHg 93%
23:00 +9°C° 0 mm 1 mps 528 mmHg 91%

Pasado mañana, 21 Enero, Jueves

Tiempo Temperatura Precipitaciones Viento Presión Humedad
00:00 +9°C° 0 mm 1 mps 527 mmHg 90%
01:00 +9°C° 0 mm 1 mps 527 mmHg 88%
02:00 +8°C° 0 mm 1 mps 527 mmHg 86%
03:00 +8°C° 0 mm 1 mps 527 mmHg 84%
04:00 +8°C° 0 mm 1 mps 526 mmHg 82%
05:00 +8°C° 0 mm 1 mps 527 mmHg 82%
06:00 +8°C° 0 mm 2 mps 527 mmHg 82%
07:00 +8°C° 0 mm 2 mps 528 mmHg 82%
08:00 +10°C° 0 mm 2 mps 529 mmHg 76%
09:00 +13°C° 0 mm 1 mps 530 mmHg 70%
10:00 +15°C° 0 mm 1 mps 532 mmHg 64%
11:00 +15°C° 0.1 mm 1 mps 531 mmHg 66%
12:00 +15°C° 0.1 mm 1 mps 531 mmHg 67%
13:00 +15°C° 0.1 mm 2 mps 531 mmHg 68%
14:00 +15°C° 0.6 mm 2 mps 530 mmHg 72%
15:00 +15°C° 0.6 mm 2 mps 529 mmHg 77%
16:00 +14°C° 0.6 mm 2 mps 529 mmHg 81%
17:00 +13°C° 0.5 mm 1 mps 528 mmHg 86%
18:00 +12°C° 0.5 mm 1 mps 528 mmHg 91%
19:00 +11°C° 0.5 mm 1 mps 528 mmHg 97%
20:00 +11°C° 0.4 mm 1 mps 528 mmHg 96%
21:00 +11°C° 0.4 mm 1 mps 529 mmHg 95%
22:00 +11°C° 0.4 mm 1 mps 529 mmHg 95%
23:00 +10°C° 0.7 mm 0 mps 529 mmHg 95%

22 Enero, Viernes

Tiempo Temperatura Precipitaciones Viento Presión Humedad
00:00 +10°C° 0.7 mm 0 mps 529 mmHg 96%
01:00 +10°C° 0.7 mm 0 mps 528 mmHg 96%
02:00 +10°C° 1 mm 0 mps 528 mmHg 96%
03:00 +10°C° 1 mm 0 mps 528 mmHg 96%
04:00 +10°C° 1 mm 0 mps 528 mmHg 96%
05:00 +10°C° 0.4 mm 0 mps 528 mmHg 96%
06:00 +11°C° 0.4 mm 1 mps 529 mmHg 96%
07:00 +11°C° 0.4 mm 1 mps 529 mmHg 95%
08:00 +11°C° 0.5 mm 1 mps 530 mmHg 92%
09:00 +12°C° 0.5 mm 1 mps 530 mmHg 89%
10:00 +13°C° 0.5 mm 1 mps 531 mmHg 86%
11:00 +12°C° 0.9 mm 1 mps 531 mmHg 87%
12:00 +12°C° 0.9 mm 1 mps 530 mmHg 89%
13:00 +12°C° 0.9 mm 1 mps 530 mmHg 90%
14:00 +12°C° 0.4 mm 1 mps 529 mmHg 89%
15:00 +12°C° 0.4 mm 1 mps 529 mmHg 88%
16:00 +12°C° 0.4 mm 1 mps 529 mmHg 87%
17:00 +12°C° 0.3 mm 1 mps 528 mmHg 90%
18:00 +11°C° 0.3 mm 1 mps 528 mmHg 94%
19:00 +11°C° 0.3 mm 1 mps 528 mmHg 97%
20:00 +11°C° 0.2 mm 1 mps 529 mmHg 96%
21:00 +11°C° 0.2 mm 1 mps 529 mmHg 96%
22:00 +9°C° 0.2 mm 0 mps 529 mmHg 96%
23:00 +9°C° 0.5 mm 0 mps 529 mmHg 96%

23 Enero, Sábado

Tiempo Temperatura Precipitaciones Viento Presión Humedad
00:00 +9°C° 0.5 mm 0 mps 529 mmHg 96%
01:00 +9°C° 0.5 mm 0 mps 529 mmHg 96%
02:00 +9°C° 0.2 mm 0 mps 528 mmHg 96%
03:00 +10°C° 0.2 mm 1 mps 528 mmHg 96%
04:00 +10°C° 0.2 mm 1 mps 528 mmHg 97%
05:00 +10°C° 1 mm 1 mps 528 mmHg 96%
06:00 +10°C° 1 mm 1 mps 528 mmHg 96%
07:00 +10°C° 1 mm 1 mps 529 mmHg 96%
08:00 +11°C° 0.8 mm 1 mps 529 mmHg 94%
09:00 +11°C° 0.8 mm 1 mps 530 mmHg 91%
10:00 +12°C° 0.8 mm 1 mps 531 mmHg 88%
11:00 +12°C° 0.7 mm 1 mps 530 mmHg 89%
12:00 +12°C° 0.7 mm 1 mps 530 mmHg 89%
13:00 +12°C° 0.7 mm 1 mps 529 mmHg 89%
14:00 +12°C° 0.3 mm 1 mps 529 mmHg 87%
15:00 +12°C° 0.3 mm 1 mps 529 mmHg 85%
16:00 +13°C° 0.3 mm 1 mps 528 mmHg 84%
17:00 +12°C° 0.2 mm 1 mps 528 mmHg 87%
18:00 +11°C° 0.2 mm 1 mps 528 mmHg 91%
19:00 +10°C° 0.2 mm 1 mps 528 mmHg 95%
20:00 +10°C° 0.1 mm 1 mps 528 mmHg 94%
21:00 +10°C° 0.1 mm 1 mps 528 mmHg 93%
22:00 +10°C° 0.1 mm 1 mps 529 mmHg 92%
23:00 +10°C° 0.1 mm 1 mps 529 mmHg 93%

24 Enero, Domingo

Tiempo Temperatura Precipitaciones Viento Presión Humedad
00:00 +10°C° 0.1 mm 1 mps 528 mmHg 93%
01:00 +10°C° 0.1 mm 1 mps 528 mmHg 93%
02:00 +10°C° 0.1 mm 1 mps 528 mmHg 93%
03:00 +10°C° 0.1 mm 1 mps 528 mmHg 94%
04:00 +9°C° 0.1 mm 0 mps 527 mmHg 94%
05:00 +10°C° 0.1 mm 1 mps 528 mmHg 94%
06:00 +10°C° 0.1 mm 1 mps 528 mmHg 93%
07:00 +10°C° 0.1 mm 1 mps 528 mmHg 93%
08:00 +11°C° 0.4 mm 1 mps 529 mmHg 90%
09:00 +12°C° 0.4 mm 1 mps 530 mmHg 87%
10:00 +12°C° 0.4 mm 1 mps 530 mmHg 85%
11:00 +12°C° 0.5 mm 1 mps 530 mmHg 84%
12:00 +12°C° 0.5 mm 1 mps 529 mmHg 84%
13:00 +12°C° 0.5 mm 1 mps 529 mmHg 84%
14:00 +13°C° 0.3 mm 1 mps 529 mmHg 82%
15:00 +13°C° 0.3 mm 1 mps 529 mmHg 81%
16:00 +14°C° 0.3 mm 1 mps 529 mmHg 79%
17:00 +13°C° 0.3 mm 1 mps 528 mmHg 84%
18:00 +12°C° 0.3 mm 1 mps 528 mmHg 88%
19:00 +11°C° 0.3 mm 1 mps 528 mmHg 93%
20:00 +11°C° 0.2 mm 1 mps 528 mmHg 93%
21:00 +11°C° 0.2 mm 1 mps 529 mmHg 93%
22:00 +10°C° 0.2 mm 0 mps 529 mmHg 94%
23:00 +10°C° 0.9 mm 0 mps 529 mmHg 94%
Mostrar más